Location: Johnson City
(36.3130°N, 82.3540°W)
Time: 12:25:19
(UTC-05:00)

N. Korean satellite - Visible Passes

Search period start: 25 January 2021 00:00
Search period end: 04 February 2021 00:00
Orbit: 452 x 502 km, 97.2° (Epoch: 24 January)

Date Brightness Start Highest point End Pass type
(mag) Time Alt. Az. Time Alt. Az. Time Alt. Az.
25 Jan 6.3 06:04:51 10° N 06:08:16 63° WNW 06:11:37 10° SSW visible
26 Jan 7.4 05:38:21 10° NNE 05:41:41 48° E 05:44:58 10° S visible
27 Jan 9.1 05:12:24 10° NE 05:15:00 20° E 05:17:35 10° SE visible
27 Jan 7.9 06:45:51 10° NNW 06:48:10 17° WNW 06:50:28 10° WSW visible
28 Jan 6.8 06:18:31 10° N 06:21:44 38° WNW 06:24:54 10° SW visible
29 Jan 6.4 05:51:46 10° NNE 05:55:12 80° ESE 05:58:35 10° S visible
30 Jan 8.3 05:25:29 10° NNE 05:28:33 31° E 05:31:35 10° SSE visible
30 Jan 8.4 07:00:19 10° NW 07:01:32 12° WNW 07:02:45 10° W visible
31 Jan 9.7 05:00:03 10° ENE 05:01:49 13° E 05:03:35 10° SE visible
31 Jan 7.4 06:32:17 10° NNW 06:35:08 25° WNW 06:37:58 10° SW visible
01 Feb 6.3 06:05:16 10° N 06:08:39 61° WNW 06:12:00 10° SSW visible
02 Feb 7.3 05:38:43 10° NNE 05:42:03 49° E 05:45:21 10° S visible
03 Feb 9.1 05:12:44 10° NE 05:15:21 20° E 05:17:57 10° SE visible
03 Feb 8.0 06:46:14 10° NNW 06:48:30 17° WNW 06:50:45 10° WSW visible
